Location: Sperry Observatory
(40.6664°N, 74.3236°W)
Time: 16:18:15
(UTC-04:00)

UOSAT-12 - Visible Passes

Search period start: 01 October 2014 00:00
Search period end: 11 October 2014 00:00
Orbit: 594 x 664 km, 64.6° (Epoch: 30 September)

Date Brightness Start Highest point End Pass type
(mag) Time Alt. Az. Time Alt. Az. Time Alt. Az.
01 Oct 9.3 05:13:52 10° NNW 05:17:53 26° NE 05:21:49 10° ESE visible
02 Oct 8.0 05:34:00 10° NNW 05:38:38 52° NE 05:43:10 10° SE visible
02 Oct 9.2 19:46:36 10° SSE 19:47:06 12° SE 19:47:06 12° SE visible
02 Oct 9.9 21:24:32 10° SW 21:24:35 10° SW 21:24:35 10° SW visible
03 Oct 9.8 04:15:20 10° N 04:18:29 17° NE 04:21:36 10° E visible
03 Oct 7.1 05:54:27 10° NW 05:59:10 74° WSW 06:03:48 10° SSE visible
03 Oct 7.7 20:05:25 10° S 20:09:15 35° SE 20:09:15 35° SE visible
03 Oct 9.8 21:45:46 10° WSW 21:46:43 15° W 21:46:43 15° W visible
04 Oct 8.9 04:35:10 10° NNW 04:39:23 31° NE 04:43:32 10° ESE visible
04 Oct 7.9 06:15:19 10° NW 06:19:31 33° WSW 06:23:38 10° S visible
04 Oct 7.0 20:25:21 10° SSW 20:29:58 81° ESE 20:31:08 51° NE visible
04 Oct 10.2 22:07:49 10° WNW 22:08:35 12° WNW 22:08:35 12° WNW visible
05 Oct 10.2 03:19:10 11° NE 03:19:10 11° NE 03:20:33 10° NE visible
05 Oct 7.6 04:56:37 18° NNW 05:00:04 63° NE 05:04:41 10° SE visible
05 Oct 8.5 19:07:23 10° SSE 19:10:44 20° ESE 19:14:08 10° ENE visible
05 Oct 8.1 20:46:04 10° SW 20:50:32 47° NW 20:52:41 28° N visible
06 Oct 9.7 03:41:05 19° ENE 03:41:05 19° ENE 03:43:28 10° E visible
06 Oct 7.1 05:18:34 32° NW 05:20:33 60° WSW 05:25:07 10° SSE visible
06 Oct 7.5 19:26:35 10° S 19:30:58 44° ESE 19:35:26 10° NE visible
06 Oct 9.3 21:07:29 10° W 21:11:18 25° NW 21:13:49 16° N visible
07 Oct 9.3 04:03:14 22° ESE 04:03:14 22° ESE 04:05:11 10° ESE visible
07 Oct 8.1 05:40:43 27° WSW 05:40:51 27° WSW 05:44:42 10° S visible
07 Oct 7.2 19:46:44 10° SW 19:51:22 83° WNW 19:56:07 10° NNE visible
07 Oct 10.0 21:29:50 10° WNW 21:32:17 14° NW 21:34:37 10° N visible
08 Oct 9.5 04:25:27 14° SE 04:25:27 14° SE 04:26:08 10° SE visible
08 Oct 8.5 20:07:38 10° WSW 20:11:59 39° NW 20:16:26 10° NNE visible
09 Oct 7.3 18:47:48 10° SSW 18:52:19 55° ESE 18:56:55 10° NE visible
09 Oct 9.6 20:29:15 10° W 20:32:48 21° NW 20:36:24 10° N visible
10 Oct 7.6 19:08:10 10° SW 19:12:46 68° NW 19:17:29 10° NNE visible
10 Oct 10.1 20:51:59 10° WNW 20:53:50 12° NW 20:55:41 10° NNW visible
